Location: Long Geng
(2.6167°N, 114.1333°E)
Time: 00:56:33
(UTC+00:00)

Cosmos 2219 Rocket - Pass Details

Date: 14 May 2021
Orbit: 827 x 847 km, 71.0° (Epoch: 19 June)

Event Time Altitude Azimuth Distance (km) Brightness Sun altitude
Exits shadow 21:44:35 - 257° (WSW) 2,565 4.0 -7.5°
Reaches altitude 10° 21:45:19 10° 264° (W) 2,446 4.0 -7.3°
Maximum altitude 21:47:29 12° 287° (WNW) 2,287 4.0 -6.8°
Drops below altitude 10° 21:49:40 10° 310° (NW) 2,448 4.3 -6.3°
Sets 21:53:48 0° 339° (NNW) 3,384 5.3 -5.3°
